GFSSGP_sfc_dewp_204.txt.gz
Dewpoint
54 41 39 42 33 26 21 24 19 24 26 38 40 50 53 55 55 52 61 59 63 65 65 67 72 72 71 71 70 70 71 71 71 71 71 71 70 68 68 69 69 70 69 69 68 68 69 69 69
48 38 41 40 22 20 16 19 21 21 25 35 33 43 50 53 55 57 56 61 64 65 64 64 71 72 72 71 71 70 70 70 71 71 69 69 69 68 68 69 69 69 69 69 68 68 67 68 68
48 38 40 32 21 14 21 19 17 18 19 21 26 35 51 53 54 44 42 58 65 66 67 68 71 71 71 71 70 70 70 70 70 71 70 70 70 70 70 70 70 70 69 69 70 69 68 68 68
40 39 33 20 16 17 20 18 18 17 18 18 18 36 54 56 56 40 36 40 43 54 67 69 70 70 71 71 71 70 71 70 69 71 70 70 69 70 71 70 70 70 70 69 69 68 68 68 68
37 35 26 19 19 16 20 21 19 18 18 15 15 20 46 52 47 43 39 37 37 38 43 63 70 69 70 70 70 70 69 70 69 70 70 69 69 70 70 70 71 70 69 69 68 68 67 67 67
35 29 21 18 15 18 21 22 20 18 17 15 17 16 40 47 44 41 40 38 40 40 42 47 64 68 69 69 69 69 70 70 70 70 70 69 69 70 70 70 70 70 69 69 68 67 66 65 65
35 28 23 15 17 17 20 22 21 21 18 20 20 13 35 41 41 42 41 41 42 42 42 42 46 49 58 69 69 69 69 70 69 69 70 70 70 70 69 70 70 70 70 69 69 67 66 64 63
37 30 19 14 14 21 22 24 24 22 21 23 23 18 25 36 33 38 38 41 40 40 41 43 45 45 46 50 68 69 68 68 68 69 69 69 68 68 69 69 69 69 70 69 68 67 65 64 63
33 30 21 18 19 19 22 20 25 26 23 24 23 22 26 28 34 37 39 42 43 42 40 43 45 46 46 47 56 68 68 68 67 67 67 67 67 67 66 67 67 68 68 69 67 66 65 64 62
31 32 22 20 19 20 23 25 25 25 24 23 23 25 27 30 32 33 35 38 40 40 41 41 43 45 46 45 43 50 53 67 67 67 66 67 66 66 66 65 66 68 68 68 67 65 64 62 58
32 28 23 23 30 29 26 25 27 24 24 22 22 24 27 29 30 31 33 37 38 41 44 44 44 46 45 46 46 49 49 53 65 66 66 66 67 66 66 66 66 66 65 65 64 62 61 58 53
28 26 26 30 33 31 28 29 26 27 25 24 26 27 28 28 28 31 33 36 37 41 43 45 45 46 46 47 47 46 44 45 49 61 65 65 65 65 65 66 65 66 65 63 62 59 58 55 50
29 28 31 33 34 32 30 29 27 26 26 26 26 28 27 28 30 31 33 34 35 40 42 45 45 45 45 46 48 47 45 43 44 48 49 64 64 64 64 65 65 66 65 63 60 58 56 52 50
33 32 31 33 30 27 29 26 26 25 26 25 25 26 27 29 31 32 33 34 35 40 41 44 45 45 45 45 47 48 49 48 47 48 49 48 60 62 63 63 61 63 65 63 60 57 53 51 53
35 29 28 30 30 27 29 27 25 25 25 24 23 23 28 31 31 31 33 36 36 39 41 40 42 45 45 45 47 48 50 50 49 49 48 50 59 60 60 61 60 59 61 61 60 58 53 56 55
28 27 23 28 30 31 27 23 26 24 23 22 23 23 29 30 30 33 34 37 37 37 38 40 40 43 44 44 46 47 48 50 50 50 50 51 57 60 59 58 59 60 60 60 58 58 59 59 58
23 27 18 26 28 28 25 21 21 23 22 22 22 24 27 29 32 35 36 36 34 34 34 36 39 40 42 43 46 47 48 49 50 51 51 53 56 60 58 59 58 60 60 58 57 56 58 58 58
31 16 16 16 27 25 23 22 21 18 19 18 21 24 25 30 34 37 37 37 37 35 36 38 38 39 40 42 44 47 49 51 51 52 54 53 56 58 59 59 58 59 59 57 56 55 56 57 56
21 18 13 20 26 25 22 21 19 17 19 21 20 21 25 30 36 37 38 38 37 37 38 38 38 38 41 43 43 43 43 46 50 54 54 54 55 56 57 59 58 59 57 57 56 55 56 56 53
20 18 19 22 24 24 22 23 23 18 20 22 19 20 24 30 34 37 38 37 37 38 40 38 37 40 42 45 45 46 45 46 47 49 54 55 55 56 57 58 57 58 57 56 55 53 54 54 52
21 19 18 21 26 25 25 21 18 21 21 23 23 25 25 28 29 31 34 34 35 36 38 37 38 41 44 45 47 47 47 47 47 48 49 55 55 55 56 56 57 56 56 55 55 53 52 52 52
25 22 23 26 25 23 22 16 17 19 19 20 23 23 25 24 24 26 28 30 32 34 39 39 40 42 44 46 47 47 47 46 47 47 49 50 55 54 56 57 56 56 57 55 54 53 52 54 51
28 28 29 29 27 20 22 21 16 15 15 19 21 22 22 23 25 27 28 31 33 34 38 39 40 42 45 46 47 48 48 48 48 48 47 47 50 55 54 55 56 56 56 56 54 53 52 53 52
30 27 28 29 28 18 21 23 16 13 14 20 21 20 22 24 26 28 29 31 32 34 40 43 43 44 45 46 47 48 46 48 48 47 46 46 48 52 54 55 55 56 56 55 55 54 53 52 51
29 24 21 19 16 20 17 16 14 14 18 20 21 21 24 26 27 29 31 31 33 36 43 44 43 44 44 46 46 48 48 49 48 47 47 45 46 47 52 54 55 55 54 54 54 53 53 52 51
28 23 23 10 18 19 18 17 13 19 21 21 22 24 26 27 28 29 30 34 38 41 42 42 43 43 45 46 48 48 47 48 48 49 49 48 47 47 51 53 54 55 54 54 53 52 52 52 52
25 22 24 20 15 17 17 17 19 21 22 22 23 25 26 28 29 28 31 38 41 40 41 41 44 44 47 49 48 48 49 49 49 49 50 49 48 48 49 52 54 53 54 53 53 52 51 52 52
28 24 20 24 17 15 15 13 21 20 21 23 23 25 26 28 28 28 32 40 41 42 43 44 45 45 47 48 48 48 48 49 48 47 48 48 48 48 48 51 53 54 54 53 52 51 50 50 50
25 22 22 24 25 15 14 13 18 21 23 23 23 26 26 28 28 29 34 41 42 42 43 44 46 47 47 46 46 46 46 49 49 48 47 47 48 47 48 51 52 53 52 51 50 48 47 47 48
25 21 20 21 19 22 21 20 18 21 23 24 25 26 26 27 28 30 38 41 41 42 43 45 45 45 44 43 43 43 45 49 47 47 48 48 47 49 50 51 51 52 51 50 49 46 45 45 45

GFSSGP_sfc_dewp_207.txt.gz
Dewpoint
57 49 46 37 27 23 19 21 22 22 31 34 42 54 54 55 54 52 63 58 62 66 67 70 72 72 71 71 71 70 70 72 72 71 71 71 70 68 69 70 69 69 70 69 69 69 69 69 68
53 47 38 34 17 18 15 18 18 21 31 31 33 49 53 54 58 57 53 62 66 66 67 69 73 72 72 71 70 70 69 70 72 71 70 70 69 68 68 68 69 69 69 69 69 68 69 68 68
52 46 36 27 16 12 17 19 17 18 17 18 31 44 54 54 41 42 38 58 65 67 67 68 72 72 72 71 70 70 69 70 70 71 70 69 69 69 69 69 69 70 70 70 70 68 68 68 68
39 36 29 15 16 17 17 17 18 17 17 16 24 52 55 48 41 36 37 38 43 63 67 69 70 71 71 71 71 70 70 69 69 70 70 69 69 69 70 70 70 70 70 69 69 69 69 69 68
36 32 22 18 15 18 21 20 18 17 17 14 16 39 51 47 41 39 38 38 38 39 59 64 69 69 69 69 69 70 70 70 69 69 70 69 69 69 70 70 70 70 70 69 68 69 68 68 68
32 26 17 15 14 20 21 22 19 18 16 16 17 28 43 44 40 40 40 40 41 40 43 53 62 59 64 70 70 70 69 70 69 70 70 70 69 68 69 70 70 70 69 68 68 68 67 67 67
30 23 17 15 15 17 21 22 22 21 19 20 20 17 40 39 40 40 39 40 40 41 41 44 46 49 58 64 69 69 69 69 70 69 70 70 70 70 69 69 70 70 70 69 69 67 66 65 65
33 27 19 16 14 18 23 23 24 20 22 23 21 20 35 38 36 36 40 40 40 39 41 43 44 46 45 48 63 69 69 69 69 68 69 68 68 68 69 69 69 70 70 70 69 68 66 65 65
29 26 20 15 18 19 23 22 24 26 22 23 23 23 28 30 33 36 38 39 39 42 42 42 44 45 46 46 49 66 68 68 68 67 66 67 67 67 66 67 67 69 69 69 69 68 67 65 64
29 30 23 22 24 20 24 24 25 25 25 24 23 25 27 30 30 32 35 36 39 38 40 42 43 44 45 45 46 49 51 64 66 66 66 66 66 66 67 65 66 68 68 68 68 67 66 63 59
31 26 22 32 31 28 26 25 27 25 24 23 22 25 28 30 29 31 33 36 37 41 42 44 43 44 44 45 47 46 46 47 63 65 65 65 66 65 65 65 65 66 65 66 67 65 62 59 56
24 28 27 33 33 31 28 30 26 26 25 24 26 27 28 27 28 31 32 35 37 40 43 45 45 45 45 46 46 46 44 44 45 59 64 64 64 63 64 64 64 65 65 65 64 61 60 58 56
28 29 31 33 33 32 30 29 28 26 27 25 26 28 27 27 29 32 33 34 39 40 43 44 44 44 45 45 47 47 47 47 45 45 48 63 62 62 62 63 63 64 64 64 62 60 59 58 53
33 31 32 32 31 28 28 27 26 24 26 25 25 25 26 28 30 31 33 35 39 40 41 42 44 44 45 44 45 47 48 48 49 48 48 48 62 61 61 61 62 63 65 63 62 60 59 57 53
35 27 28 30 29 28 28 25 25 25 24 23 22 24 29 31 30 32 35 36 38 39 39 41 44 45 44 44 45 47 48 49 48 49 49 48 59 59 59 59 58 59 62 60 61 60 60 59 58
27 26 21 29 28 30 23 14 26 25 23 22 22 26 29 30 31 33 36 37 39 39 38 38 40 42 42 42 44 46 47 47 49 50 50 50 57 59 58 57 58 60 60 60 59 58 59 59 59
25 22 19 26 28 27 24 20 23 25 22 21 22 26 28 30 33 35 36 36 34 34 35 36 39 38 40 41 43 44 46 48 48 49 50 51 56 59 57 56 57 60 60 59 57 57 56 58 57
23 16 14 22 26 26 23 22 23 22 22 21 21 25 27 30 34 36 37 36 35 35 36 37 38 38 40 42 43 44 45 47 50 50 51 53 54 59 57 56 57 59 59 55 55 56 56 58 56
19 17 13 25 27 21 21 22 21 21 18 19 20 24 27 31 36 37 37 37 36 36 37 38 36 36 40 42 43 44 43 44 45 47 53 53 53 56 57 57 57 57 58 56 55 55 56 55 53
19 16 17 23 26 20 22 22 24 22 19 21 20 22 29 33 35 37 38 37 36 37 38 38 37 38 40 44 45 45 45 46 46 47 48 51 54 54 56 57 57 57 56 57 55 54 54 53 53
20 17 17 20 27 25 23 12 19 20 21 24 24 25 28 30 28 29 33 33 32 32 35 38 38 40 42 43 46 47 47 47 46 47 48 49 53 54 54 57 57 58 57 56 56 55 54 52 53
20 23 24 25 23 16 19 5 15 19 20 22 23 24 23 24 25 26 27 28 30 32 36 37 39 40 41 43 46 46 46 46 47 47 48 48 49 53 54 55 56 56 57 56 56 54 54 53 52
28 32 30 30 25 15 15 15 11 18 17 20 22 21 22 24 25 27 29 30 32 32 35 41 43 44 44 44 45 47 47 48 48 48 47 47 48 49 53 54 55 54 55 55 55 54 53 53 52
29 27 29 29 25 7 6 11 14 14 16 21 21 21 24 26 26 28 30 31 33 36 42 43 43 44 44 44 45 47 48 47 47 48 47 46 47 47 49 53 54 55 55 55 55 54 53 53 53
29 23 17 17 10 8 19 17 15 17 19 21 21 23 25 27 27 28 29 32 37 40 41 41 42 43 44 44 46 46 48 48 47 47 47 47 47 46 46 49 52 54 55 55 55 54 53 53 53
28 24 20 -2 16 17 17 12 11 20 21 23 24 25 26 27 28 27 29 33 40 41 41 42 42 44 45 45 48 48 48 48 48 48 48 48 48 47 47 49 52 53 54 55 55 55 54 53 53
27 24 24 18 18 13 16 18 18 23 23 23 24 25 25 28 27 28 29 39 41 41 42 43 44 45 46 48 48 48 48 48 48 48 49 49 49 49 48 49 50 52 53 54 54 54 53 53 52
26 24 17 21 11 13 15 15 19 20 22 24 24 25 26 28 28 28 31 41 41 42 42 43 46 46 47 47 47 45 45 46 46 47 48 47 47 48 48 48 49 50 52 54 53 53 52 52 52
25 23 23 23 21 10 11 12 19 19 24 23 24 25 26 25 27 28 37 41 41 42 42 43 46 45 45 44 43 43 43 43 45 48 47 47 47 47 47 47 48 49 51 53 53 52 51 51 51
24 20 19 16 14 18 16 14 21 22 25 24 25 25 24 27 28 30 40 41 41 42 42 45 44 43 43 42 42 42 44 44 47 46 46 46 47 48 48 48 48 50 52 52 51 50 50 49 48

GFSSGP_sfc_dewp_213.txt.gz
Dewpoint
56 52 44 34 13 18 19 19 20 26 35 42 52 54 54 55 51 48 57 57 63 67 69 69 72 72 71 71 71 71 71 71 71 71 71 69 68 69 69 69 69 69 69 68 68 68 68 68 68
53 46 36 27 17 11 11 18 24 25 36 53 46 54 53 52 55 45 54 57 64 67 69 69 71 72 71 71 71 70 70 70 70 70 70 70 68 68 69 69 68 68 69 69 69 68 68 67 67
47 41 29 22 13 12 16 17 18 18 18 25 47 55 52 41 37 40 42 65 66 67 68 69 70 71 71 71 71 70 70 70 70 70 70 70 68 68 67 68 68 69 69 69 69 69 68 67 67
37 32 24 20 15 17 16 16 17 17 18 29 53 50 44 43 37 37 41 55 62 66 67 69 70 70 71 71 70 70 70 70 70 70 70 69 69 68 68 68 70 70 70 69 69 69 68 67 67
35 26 20 11 13 18 22 19 19 17 14 28 36 48 43 39 38 38 38 43 56 57 61 66 69 69 69 70 70 70 70 71 71 70 69 70 69 69 69 69 70 70 69 69 69 68 68 68 67
30 23 17 16 14 20 20 21 18 16 16 20 46 45 45 42 40 40 41 40 42 47 50 53 59 61 65 67 69 69 69 70 70 70 70 69 69 69 69 69 70 69 69 69 68 69 68 68 67
29 17 13 19 15 19 20 22 19 18 16 17 29 39 41 40 39 41 39 39 41 42 42 43 46 50 55 59 65 68 68 68 69 69 70 70 69 69 69 70 70 69 70 70 69 67 68 68 67
32 25 21 14 16 16 21 24 22 19 20 22 31 37 41 38 39 40 40 41 39 42 44 43 44 46 46 46 57 65 67 68 68 68 67 68 68 68 69 69 69 70 70 70 70 69 68 67 68
30 22 20 14 16 17 22 22 24 25 21 22 22 38 37 37 37 36 36 37 40 42 41 42 44 44 45 47 50 53 56 57 65 67 66 66 66 66 66 67 67 68 69 70 69 69 68 67 67
28 25 22 25 21 21 22 22 23 22 22 22 25 28 30 32 35 32 33 34 36 38 42 43 43 45 45 45 46 46 46 47 52 65 65 65 66 66 66 65 65 67 68 68 69 68 68 66 63
29 25 25 30 31 25 25 26 27 23 23 22 24 26 29 30 29 30 33 35 38 40 44 45 44 45 45 45 46 46 46 46 47 58 64 63 64 64 64 64 64 64 65 66 67 66 66 63 61
22 28 26 31 31 29 26 28 26 24 23 24 25 27 27 27 28 33 34 37 39 42 43 44 44 44 45 46 46 46 46 47 47 47 50 58 61 61 61 62 62 63 63 63 64 65 65 62 59
25 28 31 31 30 30 30 27 25 26 25 26 27 26 26 27 30 32 35 38 40 40 42 44 44 44 44 44 46 46 47 47 47 48 48 52 60 60 59 60 60 61 63 64 64 64 63 62 59
29 30 31 31 30 28 25 26 27 24 27 26 25 26 26 28 31 34 36 38 39 39 40 43 45 44 44 44 45 46 45 47 47 48 48 48 51 58 59 60 61 60 62 64 64 62 62 61 60
31 25 26 28 29 25 26 16 24 24 26 25 23 23 27 30 32 33 36 38 37 38 41 42 43 42 41 41 43 44 44 45 45 46 47 48 50 56 58 57 58 58 59 62 61 61 61 60 60
24 22 17 24 28 28 19 -0 25 24 25 24 22 25 29 31 32 33 37 37 37 38 37 38 40 40 39 40 41 42 43 44 45 46 47 48 49 51 56 55 55 56 59 60 59 59 59 55 56
22 12 15 19 29 28 19 8 22 25 24 20 21 27 29 31 33 35 37 38 38 36 37 36 38 38 39 40 41 42 43 44 44 46 48 49 51 52 55 55 54 55 56 56 56 56 57 54 56
11 16 13 16 24 24 23 19 18 24 23 19 20 25 29 32 34 36 37 38 36 35 36 37 37 37 39 41 41 42 43 43 44 45 46 47 48 50 53 55 54 55 54 54 54 53 54 57 56
19 17 13 20 26 22 21 19 18 18 21 22 21 23 28 31 35 37 36 35 35 36 37 38 37 37 39 40 41 41 42 44 45 46 46 47 47 48 50 53 54 54 54 53 55 52 56 55 54
23 20 14 21 26 19 20 20 20 22 21 21 21 22 28 32 36 37 37 36 36 33 35 37 37 39 40 41 42 43 44 45 46 47 47 47 47 48 50 51 54 56 54 53 52 55 55 54 54
25 18 15 15 24 23 19 13 16 22 23 23 23 24 31 35 36 36 36 30 30 32 35 37 41 42 43 43 43 44 45 46 46 46 47 48 48 48 48 51 54 55 56 56 53 54 54 53 54
19 24 21 24 18 15 17 8 5 19 22 25 27 30 33 29 28 27 28 30 31 32 38 42 42 42 43 43 43 43 43 43 45 46 47 47 48 47 48 49 51 54 56 55 55 54 54 54 52
23 31 28 25 20 15 15 13 2 19 21 24 23 24 24 25 28 28 30 30 34 37 41 41 41 42 42 43 44 43 43 45 46 47 47 48 48 46 47 47 49 51 54 55 54 53 53 54 53
29 25 26 24 18 8 11 11 -1 17 19 23 21 23 26 27 27 28 29 33 37 40 41 41 41 42 43 44 44 44 44 45 46 47 48 48 48 47 47 47 47 49 50 53 54 54 53 54 53
23 19 11 7 6 11 14 11 5 10 18 22 22 24 26 27 27 27 27 31 38 39 41 42 42 42 44 45 45 46 46 45 45 45 46 46 46 46 47 47 47 47 49 50 52 52 53 53 53
24 19 13 -5 7 11 18 15 12 20 21 22 24 26 26 27 26 27 28 32 39 40 41 42 42 43 44 45 45 45 45 46 45 45 45 45 45 45 47 47 47 47 48 49 50 52 53 52 53
24 23 23 17 14 12 16 16 19 23 23 24 25 26 26 27 27 27 28 39 40 40 41 42 42 43 44 44 44 43 42 41 42 43 43 44 44 46 48 48 49 47 47 48 49 51 51 52 53
25 24 18 21 6 9 12 14 18 20 22 24 25 25 26 28 27 27 30 39 40 40 41 42 43 43 43 42 42 41 41 42 42 43 42 43 44 47 47 47 48 48 47 48 48 49 51 51 53
25 24 22 22 17 7 7 11 18 20 23 26 25 26 26 25 27 27 31 39 39 40 40 41 42 42 41 41 41 42 43 43 44 44 45 46 45 45 45 45 46 46 47 48 48 49 50 50 51
25 24 22 20 15 18 16 14 19 21 25 26 25 26 26 27 28 29 35 38 38 39 40 41 41 40 40 40 40 43 45 45 45 44 43 43 43 44 44 45 47 47 47 47 48 48 49 49 51

GFSSGP_sfc_dewp_219.txt.gz
Dewpoint
55 41 39 34 21 17 12 12 20 32 47 52 54 53 53 54 50 49 56 61 66 67 67 68 72 72 72 71 71 71 71 71 70 69 68 69 69 69 69 69 68 68 68 68 67 66 67 67 68
48 43 38 27 15 5 3 16 22 30 54 54 53 52 50 49 46 51 58 58 64 68 67 67 72 71 71 71 71 71 71 71 71 70 69 68 69 70 70 69 67 68 69 69 68 67 67 67 67
45 36 35 24 15 7 8 19 25 19 49 34 53 50 46 38 40 52 55 62 66 67 68 68 71 71 71 71 70 70 71 70 71 70 70 69 68 69 69 69 68 70 69 69 69 68 67 67 67
39 35 28 23 16 15 18 18 18 17 22 48 50 46 40 40 38 41 57 65 66 67 67 69 70 69 70 70 70 70 70 70 70 70 70 69 68 68 68 69 69 69 69 69 69 68 67 67 67
34 28 20 19 16 18 20 19 18 17 19 36 46 45 38 38 39 41 50 61 62 60 62 66 69 69 69 69 69 70 70 70 70 70 69 69 69 69 69 69 69 70 69 69 69 69 68 67 66
31 25 16 11 12 17 21 21 18 15 22 33 45 41 39 41 39 41 44 49 55 57 55 55 59 62 63 67 68 69 69 70 70 70 69 69 69 69 69 69 69 69 69 69 68 68 68 67 67
29 24 17 17 17 18 20 22 18 17 18 25 45 43 40 39 41 42 42 43 44 46 48 50 56 54 56 63 65 67 68 69 69 69 69 69 69 69 68 69 69 69 69 69 69 69 68 68 67
31 27 19 19 16 20 23 23 21 18 20 22 38 40 36 40 41 43 43 44 43 44 46 46 47 48 51 55 59 58 60 66 68 68 67 67 68 68 69 68 68 68 69 69 69 69 69 68 68
31 25 20 21 18 20 23 22 24 24 22 23 25 40 39 40 39 41 42 43 43 44 45 47 48 47 48 49 49 51 55 62 66 66 66 66 67 67 66 66 67 68 68 68 69 69 68 67 67
25 20 15 23 19 22 23 25 23 21 22 25 33 33 36 37 36 38 40 41 41 43 45 46 47 47 48 45 48 49 48 51 55 62 65 66 66 66 66 65 65 66 66 67 68 68 68 66 63
32 21 26 28 30 27 25 25 26 21 23 24 33 33 33 35 33 35 37 41 42 44 46 46 47 48 48 48 48 48 48 49 49 51 55 60 64 65 65 66 66 65 64 66 66 67 67 66 65
28 28 28 32 32 28 26 28 26 24 24 25 34 31 31 32 31 36 39 42 43 45 45 46 46 47 47 47 46 46 45 47 47 49 51 54 61 63 63 63 63 64 65 65 66 66 66 66 65
29 28 32 32 31 30 31 29 26 26 27 26 29 30 30 30 32 36 39 41 42 43 45 46 47 46 46 45 45 43 43 43 44 46 48 51 54 56 60 62 62 63 63 62 62 64 64 64 64
32 31 31 32 30 29 26 25 29 26 27 27 28 29 28 30 33 37 39 39 39 43 45 46 45 45 44 44 45 44 43 43 44 45 46 47 51 53 57 61 61 62 62 63 63 62 64 64 63
32 27 24 28 31 26 29 20 24 26 26 27 26 26 29 31 34 36 39 39 40 42 43 42 43 44 44 43 44 45 45 44 44 45 47 49 50 52 53 57 60 60 62 62 61 60 61 62 61
24 22 17 21 30 29 22 10 23 25 26 26 24 25 30 33 33 36 38 37 40 41 42 41 40 43 43 43 43 43 44 44 45 46 47 47 48 50 52 55 56 58 59 60 60 60 59 59 60
17 16 16 14 29 29 22 13 21 25 26 25 23 25 29 32 33 36 38 38 39 37 38 40 40 40 42 42 44 44 45 45 45 46 47 47 48 48 49 51 55 57 58 57 57 57 57 56 56
14 16 14 15 24 27 25 22 21 25 25 25 22 26 31 32 34 36 38 39 38 37 39 39 39 41 42 44 44 45 45 45 46 46 47 47 48 48 49 50 51 55 57 56 55 55 56 56 55
18 17 16 17 27 26 24 22 21 20 24 23 20 25 30 32 35 38 39 38 38 38 39 38 41 42 43 43 43 43 43 45 46 47 47 47 48 49 49 51 51 52 54 55 55 54 54 55 56
23 22 20 19 26 23 23 22 22 20 21 25 21 22 28 32 36 38 38 37 37 38 39 42 43 43 43 44 44 44 44 45 46 47 47 48 48 49 48 50 50 51 54 53 54 54 54 54 56
24 19 17 16 24 23 19 17 18 22 22 24 24 24 27 32 36 37 37 36 36 37 42 42 42 43 43 44 45 45 45 45 45 46 47 48 48 49 49 49 49 50 53 54 53 54 55 54 55
22 24 23 23 22 20 18 13 9 12 21 24 24 23 25 32 36 37 35 33 35 39 42 42 43 43 43 45 45 45 44 44 45 46 47 48 48 49 49 49 48 49 51 53 53 54 54 55 53
23 29 25 23 21 20 17 20 10 18 18 21 24 26 26 33 36 36 33 34 37 42 42 42 42 43 44 45 46 45 45 45 45 45 46 46 46 47 48 48 48 49 49 51 52 53 55 55 53
29 21 21 22 21 16 15 16 12 9 15 22 25 28 32 34 32 31 33 38 40 42 42 43 43 43 45 45 45 44 44 44 43 43 43 43 44 45 45 45 46 47 48 49 50 52 52 54 54
22 21 16 12 13 14 14 13 14 11 10 21 25 27 29 29 29 31 34 37 40 41 42 42 42 43 44 44 43 43 42 43 43 43 43 43 43 44 44 45 46 46 47 48 49 50 51 50 51
22 21 16 4 8 11 17 12 7 16 22 23 26 27 28 29 29 30 32 37 41 41 42 42 43 43 43 42 42 42 42 43 43 43 43 43 43 44 45 45 46 46 47 49 49 49 50 51 51
25 23 21 17 15 15 15 15 17 22 22 23 26 27 28 28 29 29 33 40 40 40 41 42 43 42 42 41 41 41 41 43 43 43 43 44 44 44 44 44 46 46 47 48 49 49 49 50 51
26 24 20 21 11 11 12 10 17 17 20 24 26 27 28 29 28 29 38 40 40 41 41 42 42 41 41 40 40 40 41 44 45 45 44 44 43 43 43 44 44 43 44 45 47 47 48 48 50
26 24 22 22 17 11 8 11 16 19 22 25 26 27 28 29 28 29 38 39 40 40 41 41 41 41 40 39 39 40 42 44 44 43 42 41 41 40 41 41 42 43 43 44 44 46 47 47 48
26 25 22 19 15 17 15 15 18 22 24 26 26 27 28 29 30 30 38 38 39 40 40 41 40 40 40 39 39 41 42 42 42 41 40 39 39 40 40 41 42 42 43 44 45 46 47 47 47

GFSSGP_sfc_dewp_222.txt.gz
Dewpoint
52 42 41 36 21 13 8 6 21 30 38 48 52 50 50 52 48 49 57 63 65 64 65 67 72 71 71 71 71 71 70 71 70 70 70 70 70 70 70 70 68 68 68 67 66 66 68 68 68
45 42 38 29 11 3 1 14 18 34 51 52 53 52 51 50 50 57 61 62 66 64 64 64 71 71 71 71 71 71 71 71 70 69 68 69 70 69 69 69 68 68 69 68 67 67 67 68 68
43 35 30 24 13 0 5 19 23 40 51 45 51 49 48 48 48 55 58 65 66 65 65 66 71 71 71 71 71 71 71 71 71 70 69 68 69 70 69 68 68 69 69 69 68 68 67 67 67
38 33 28 16 8 12 12 19 21 37 41 46 50 45 41 41 40 47 62 66 65 66 66 68 70 70 69 69 69 70 70 70 70 71 70 68 68 68 69 69 68 70 70 69 69 68 67 67 67
34 28 15 15 12 14 18 20 20 34 34 42 49 44 41 44 41 50 62 63 64 64 65 65 69 69 69 68 68 69 69 69 70 70 70 68 68 69 69 69 69 69 68 68 69 68 67 67 67
29 26 10 6 6 12 19 20 19 21 26 45 47 42 41 41 41 45 54 59 59 60 57 59 61 63 66 68 68 68 69 69 69 69 69 69 69 69 68 69 68 69 68 68 69 68 67 67 66
24 21 12 11 10 14 18 21 18 19 26 38 45 43 39 39 42 44 44 48 49 52 54 57 57 56 61 62 62 66 68 69 70 70 69 69 68 67 67 68 68 68 68 68 68 68 68 68 67
32 26 17 17 10 13 21 22 21 18 20 41 41 41 39 39 42 44 44 45 45 48 48 48 49 53 56 58 59 61 63 68 68 68 68 68 68 69 67 68 67 67 67 67 67 68 68 68 68
31 21 13 13 16 18 22 21 22 23 21 25 30 38 40 40 41 43 45 45 44 45 46 48 48 48 50 50 50 57 64 66 66 67 66 66 66 65 65 66 66 67 67 67 67 68 68 68 67
23 19 10 20 18 19 21 23 21 21 21 22 28 36 39 39 39 41 42 43 44 44 45 46 48 48 47 44 49 51 54 58 60 63 65 66 66 66 66 65 65 66 66 66 67 68 68 66 63
28 18 23 24 28 28 23 23 24 21 22 22 25 37 38 38 36 36 39 42 44 46 46 47 48 48 47 47 47 46 48 51 52 52 56 60 62 63 63 64 64 66 64 64 66 66 64 64 66
24 26 26 27 30 26 23 25 24 23 21 24 28 38 37 36 32 34 38 42 44 46 47 47 47 48 46 44 42 42 41 44 45 48 50 51 55 60 61 59 61 61 62 62 65 65 65 65 64
27 25 28 30 29 28 28 26 24 24 25 25 37 36 36 32 32 37 39 40 42 45 47 48 47 44 43 42 41 40 38 38 39 42 44 48 50 53 55 58 59 59 59 58 56 58 64 64 64
28 28 28 29 27 27 26 24 27 23 26 29 34 33 31 30 33 38 38 37 39 43 46 47 45 44 43 43 45 43 41 42 42 44 44 44 47 50 52 55 59 60 60 59 57 55 57 62 64
31 26 26 26 27 23 26 19 20 23 25 28 29 28 29 31 34 35 37 36 39 41 42 42 44 44 44 43 44 45 45 43 42 44 46 46 46 48 50 53 54 59 61 61 59 57 57 57 60
23 23 16 21 28 26 21 6 18 23 25 25 26 26 29 32 33 37 36 38 39 39 39 40 40 44 43 44 44 44 45 44 44 45 46 47 47 48 47 49 52 55 57 59 59 57 57 57 56
19 16 11 12 27 25 21 11 18 23 25 25 24 25 27 32 34 37 37 39 38 39 39 40 42 41 43 44 44 44 45 45 45 45 46 46 47 47 47 47 48 51 55 58 58 58 58 54 54
14 10 12 12 22 25 22 19 18 22 24 24 24 23 27 31 33 37 37 39 38 38 40 40 41 43 43 44 43 44 44 45 45 45 45 46 47 48 49 48 49 48 49 55 56 56 57 56 55
17 15 12 14 25 25 23 23 21 19 25 23 24 23 26 30 34 38 38 39 39 40 41 39 41 43 43 43 42 42 43 45 45 46 47 47 48 49 49 49 49 48 48 49 53 54 55 54 56
21 18 17 19 24 23 21 21 21 21 21 23 24 24 26 31 34 38 39 38 38 40 41 43 42 42 43 44 45 45 44 45 46 47 47 48 48 49 49 49 49 48 48 48 50 52 54 55 56
20 16 14 14 21 23 21 14 17 20 21 23 25 25 25 31 34 37 38 38 39 40 43 42 43 43 44 45 46 45 45 45 45 46 46 47 47 48 50 50 49 48 49 49 49 50 51 51 55
23 22 21 20 23 21 18 12 11 11 19 21 23 25 24 31 34 37 37 37 39 42 44 44 43 44 44 46 45 45 45 44 45 45 45 45 46 46 47 49 49 50 50 50 49 48 49 50 50
24 28 25 23 26 24 18 25 5 12 9 16 21 23 25 28 35 37 37 37 38 43 45 44 43 44 46 46 45 44 44 43 43 43 43 44 44 45 45 45 45 46 47 50 50 50 49 50 51
27 22 22 25 27 25 16 13 5 6 7 17 23 23 25 26 34 37 36 37 41 44 45 44 43 45 45 45 44 43 43 42 43 44 43 43 44 45 45 45 46 46 46 46 48 51 50 50 50
25 21 27 23 25 14 13 14 8 12 11 14 18 24 28 27 34 34 36 38 41 43 43 43 43 43 43 42 42 42 42 44 44 44 43 43 43 44 45 46 46 47 47 47 47 48 50 50 50
24 21 25 15 13 13 16 11 6 16 20 22 23 26 30 32 34 34 36 39 41 42 43 42 43 43 42 40 41 41 42 43 44 45 45 45 44 44 45 45 45 45 45 46 47 48 50 50 52
24 24 20 20 16 18 9 13 15 20 21 22 25 29 31 32 33 34 37 40 41 41 42 43 42 42 41 40 39 39 41 42 42 44 44 44 44 43 43 44 44 45 45 45 46 46 47 50 51
26 23 22 23 19 14 11 9 13 17 20 23 25 29 30 30 30 32 38 40 40 41 42 42 42 41 41 40 39 38 40 41 42 43 42 42 41 41 41 42 43 43 44 44 44 44 47 47 49
25 22 23 23 21 21 10 8 17 20 22 24 25 28 28 28 29 33 38 39 40 41 42 42 41 41 40 39 39 39 41 42 42 42 41 41 40 40 41 41 42 42 43 44 43 44 44 46 46
27 24 21 19 18 21 19 14 18 22 23 25 25 27 28 29 30 32 39 39 39 39 40 40 40 40 40 39 39 39 41 42 42 41 40 40 40 40 41 41 41 42 43 44 44 45 46 45 46

GFSSGP_sfc_dewp_228.txt.gz
Dewpoint
59 52 40 42 33 26 18 19 11 16 31 44 43 49 51 53 53 51 63 64 63 64 66 69 71 71 71 71 71 72 72 72 72 70 70 71 70 70 70 69 69 69 67 67 67 68 69 69 68
50 36 42 38 21 16 17 16 18 32 45 45 48 50 49 49 57 59 61 64 64 64 64 67 72 71 71 71 71 71 70 71 71 71 71 70 70 70 70 68 68 69 68 67 68 68 68 67 67
49 37 40 33 22 12 15 12 18 33 43 43 46 48 47 47 53 58 61 65 65 65 66 69 71 71 71 71 70 70 70 70 70 70 71 70 69 69 69 68 69 69 70 70 68 68 68 68 67
39 40 34 19 15 12 11 14 19 20 44 44 48 44 45 51 53 58 64 66 65 66 67 69 70 70 70 70 70 70 70 70 70 70 70 70 70 70 69 69 70 70 69 69 68 67 67 68 67
39 36 26 20 15 10 9 15 18 18 29 38 46 43 46 49 57 62 63 64 65 66 66 68 70 70 70 70 69 69 69 69 69 69 68 68 68 68 68 69 70 70 69 69 68 67 67 67 67
37 28 21 18 11 9 14 17 16 17 27 39 42 42 45 47 53 59 61 62 63 61 63 64 67 67 66 68 69 69 68 68 68 68 68 68 68 68 68 68 69 69 68 68 68 67 67 66 67
35 30 22 15 10 15 19 19 18 19 19 33 40 39 45 45 50 53 57 55 57 59 59 59 61 63 63 63 66 67 68 68 68 68 69 68 70 69 68 69 68 68 68 69 69 68 68 67 67
35 28 18 15 14 19 21 21 23 20 26 38 41 36 42 44 47 47 52 51 49 51 52 57 58 59 58 59 65 66 67 68 68 67 67 67 68 68 68 68 68 69 69 69 69 69 69 69 68
34 29 22 17 15 16 20 19 23 23 21 30 35 39 42 43 45 46 47 47 47 48 49 50 54 57 59 60 62 66 67 66 65 65 66 66 66 66 66 66 66 67 68 68 68 69 69 68 67
30 30 21 16 16 19 22 22 22 22 20 24 28 38 41 42 44 46 46 46 45 46 47 48 49 50 53 52 56 59 63 65 64 64 66 66 66 66 66 66 65 66 66 66 67 67 68 67 64
31 26 22 19 30 29 24 22 23 22 23 23 23 37 40 41 43 44 46 47 46 46 47 48 48 48 48 48 49 50 52 54 53 52 54 62 63 62 63 65 65 64 64 64 66 66 66 64 64
27 25 25 26 31 29 24 26 23 23 24 24 23 37 39 40 41 41 43 45 46 47 47 48 48 46 46 46 44 43 44 46 48 48 49 51 53 54 54 56 56 56 56 54 56 59 64 64 64
28 26 27 27 31 28 28 27 25 25 25 24 25 37 38 39 39 37 40 43 46 47 48 48 46 44 46 46 46 43 42 42 43 45 45 48 50 50 51 52 54 55 55 54 53 54 54 61 63
31 31 29 28 27 28 26 24 27 23 25 24 33 35 37 39 35 37 38 40 44 47 47 46 46 45 46 46 46 46 44 44 45 46 45 46 48 48 49 51 53 55 57 58 57 54 53 54 60
31 28 27 28 28 28 25 22 22 23 24 24 32 34 37 35 34 35 36 39 42 45 44 45 46 46 45 45 46 47 47 45 44 45 46 46 47 48 47 49 50 52 55 56 58 56 55 54 55
23 24 19 25 27 29 26 17 20 19 22 23 30 34 35 33 33 34 35 38 41 41 41 42 44 45 45 44 45 46 47 46 46 46 46 47 47 47 47 48 48 49 50 52 55 55 56 55 55
24 19 16 22 26 28 23 18 19 20 20 20 27 30 30 31 32 35 35 38 38 38 41 43 44 44 45 44 45 46 46 46 46 47 48 47 48 48 48 49 48 49 49 49 55 54 54 54 54
19 16 13 12 24 24 23 22 21 21 20 20 23 25 28 31 32 35 36 38 38 39 41 42 44 43 44 45 44 46 46 47 48 48 47 47 48 49 49 50 49 49 48 48 53 52 53 52 52
21 17 14 14 24 25 22 22 20 19 21 21 19 23 26 30 34 36 37 38 39 41 41 42 43 43 45 45 44 44 45 46 47 48 48 48 48 49 49 49 49 49 48 48 47 49 51 50 51
18 17 18 19 21 21 21 19 18 19 20 21 21 21 24 29 33 36 39 39 39 41 42 42 43 43 45 45 45 45 45 46 46 48 47 47 46 48 46 48 49 49 49 48 48 48 49 50 50
21 16 16 17 20 19 19 20 20 18 18 20 22 21 23 29 33 36 38 39 40 42 43 43 43 44 45 46 46 46 46 46 46 45 46 46 45 46 46 47 47 48 49 49 48 48 48 48 47
23 26 24 23 23 22 17 18 14 11 14 17 21 21 22 29 34 37 38 39 42 43 43 44 44 45 45 45 45 44 43 43 43 43 45 45 46 46 46 46 46 46 47 46 48 48 48 46 46
24 28 26 27 26 24 24 20 16 11 15 17 21 21 23 28 34 37 39 39 42 44 44 44 44 45 45 45 44 43 43 43 43 44 44 44 44 45 45 46 46 45 46 46 46 46 46 48 50
27 24 24 27 27 20 23 16 15 11 12 20 20 21 24 28 33 36 39 41 44 45 44 44 44 44 44 43 42 42 42 43 43 44 44 44 44 45 44 44 45 46 46 46 46 47 47 45 47
28 23 22 19 17 19 13 14 13 16 18 20 21 20 22 26 32 37 38 41 44 44 44 43 44 43 42 41 41 41 41 42 43 43 43 43 44 44 44 43 44 44 45 45 45 44 45 46 47
26 23 25 14 17 17 14 12 10 19 22 23 24 26 25 27 31 37 38 42 43 44 42 42 43 42 41 40 39 39 40 42 42 42 44 44 43 44 43 43 43 44 44 44 45 45 44 44 46
24 23 24 22 19 16 14 12 20 23 25 25 27 29 29 29 33 37 39 42 42 42 42 43 42 42 41 40 38 38 39 40 41 41 42 42 41 41 42 42 42 43 43 44 44 45 44 44 45
27 25 21 23 17 15 13 12 19 22 24 26 28 31 31 33 36 37 40 41 41 41 42 42 42 41 40 39 38 38 38 40 40 41 41 40 40 41 41 41 41 41 42 42 43 45 45 45 44
26 23 23 24 25 20 16 13 21 23 25 26 28 32 32 35 37 38 39 40 40 41 41 41 41 40 39 39 39 39 39 40 40 39 41 39 40 40 40 40 41 41 40 41 43 44 45 45 45
27 24 20 21 18 24 22 17 23 24 25 26 27 31 32 33 35 38 39 39 39 40 41 41 41 40 40 39 39 39 40 40 39 41 41 39 40 40 40 39 39 39 41 42 43 44 45 44 45